Location: Marne
(34.0056°N, 117.9064°W)
Time: 18:39:40
(UTC+00:00)

Cosmos 2322 Rocket - Pass Details

Date: 18 January 2020
Orbit: 831 x 852 km, 71.0° (Epoch: 26 February)

Event Time Altitude Azimuth Distance (km) Brightness Sun altitude
Rises 01:27:13 0° 330° (NNW) 3,423 5.5 -4.7°
Reaches altitude 10° 01:29:48 10° 323° (NW) 2,483 4.9 -5.1°
Maximum altitude 01:35:05 40° 256° (WSW) 1,231 3.9 -6.2°
Drops below altitude 10° 01:40:20 10° 188° (S) 2,465 5.0 -7.2°
Sets 01:42:54 0° 181° (S) 3,394 5.6 -7.7°
